Location: Newark
(13.4667°N, 16.6000°W)
Time: 16:35:47
(UTC+00:00)

OTV 5 (USA 277) - Visible Passes

Search period start: 16 October 2019 00:00
Search period end: 26 October 2019 00:00
Orbit: 310 x 324 km, 54.5° (Epoch: 08 October)

Date Brightness Start Highest point End Pass type
(mag) Time Alt. Az. Time Alt. Az. Time Alt. Az.
22 Oct ? 20:09:53 10° SSW 20:10:58 21° SSW 20:10:58 21° SSW visible
23 Oct ? 05:52:05 10° NE 05:52:44 11° NE 05:53:23 10° ENE visible
23 Oct ? 20:25:11 10° W 20:26:10 15° W 20:26:10 15° W visible
24 Oct ? 06:04:57 12° NNW 06:07:18 44° NE 06:09:54 10° SE visible
24 Oct ? 19:04:58 10° S 19:07:28 34° ESE 19:09:59 10° NE visible
25 Oct ? 06:20:08 16° WNW 06:21:46 28° WSW 06:24:10 10° S visible
25 Oct ? 19:19:25 10° SW 19:21:57 36° NW 19:24:30 10° NNE visible
